sat.trackr.live / text

‹ back to catalog

STARLINK-33632

NORAD 63577 · 2025-076J

PAYLOAD ACTIVE UNKNOWN

§ Identity

Operator
Country
US
Launch date
2025-04-14
Launch site
AFETR
Launch vehicle
Mass (kg)
RCS (m²)

Purposes: comms

External: N2YO · Heavens-Above · Gunter

§ Orbital elements

Epoch: 2026-05-24T18:38:37.152960Z

Period
94.27 min
Inclination
42.9996°
Eccentricity
0.0001443
Mean motion
15.27591575 rev/d
Perigee alt
482.0 km
Apogee alt
484.0 km
Semi-major
6,861.2 km
B*
8.0177e-4
RAAN
252.2835°
Arg perigee
276.1592°
Mean anomaly
83.9096°
Rev number
6,346

§ Raw data

STARLINK-336321 63577U 25076J   26144.77681890  .00021874  00000+0  80177-3 0  99982 63577  42.9996 252.2835 0001443 276.1592  83.9096 15.27591575 63461

JSON: /api/v1/satellites/63577 · /tle

For live sub-satellite position, see the globe view (requires WebGL).

§ Visibility from observer

Set your observer location to see the next 7 days of passes ≥ 10°. The values pass through the URL so the page stays shareable.

No JS? Fill the form by hand. The geolocation button needs JavaScript.